This is the latest recevied weather packets stored in our database for station/object AD7ZD. If no packets are shown the sender has not sent any weather packets the latest 10 day(s).
| Time | Temp. | Humidity | Pressure | Rain* | Wind** | Luminosity | Snow |
|---|---|---|---|---|---|---|---|
| 1788151290 | 64° F | 40% | 760.2 mmHg | 0 in | - | 0 W/m² | - |
| 1788150986 | 64° F | 39% | 760.2 mmHg | 0 in | - | 0 W/m² | - |
| 1788150681 | 65° F | 36% | 760.1 mmHg | 0 in | - | 0 W/m² | - |
| 1788150380 | 64° F | 41% | 760.2 mmHg | 0 in | - | 0 W/m² | - |
| 1788150075 | 65° F | 38% | 760.2 mmHg | 0 in | - | 0 W/m² | - |
| 1788149770 | 66° F | 39% | 759.9 mmHg | 0 in | - | 0 W/m² | - |
| 1788149469 | 69° F | 29% | 760.1 mmHg | 0 in | - | 0 W/m² | - |
| 1788149164 | 71° F | 24% | 760 mmHg | 0 in | - | 0 W/m² | - |
| 1788148858 | 72° F | 26% | 759.9 mmHg | 0 in | - | 0 W/m² | - |
| 1788148556 | 73° F | 21% | 759.8 mmHg | 0 in | - | 0 W/m² | - |
| 1788148251 | 73° F | 21% | 759.9 mmHg | 0 in | - | 0 W/m² | - |
| 1788147950 | 73° F | 21% | 759.9 mmHg | 0 in | - | 0 W/m² | - |
| 1788147646 | 73° F | 22% | 760 mmHg | 0 in | - | 0 W/m² | - |
| 1788147341 | 73° F | 22% | 759.7 mmHg | 0 in | - | 0 W/m² | - |
| 1788147037 | 73° F | 22% | 759.8 mmHg | 0 in | - | 0 W/m² | - |
| 1788146736 | 73° F | 22% | 759.7 mmHg | 0 in | - | 0 W/m² | - |
| 1788146432 | 73° F | 22% | 759.7 mmHg | 0 in | - | 0 W/m² | - |
| 1788146131 | 74° F | 21% | 759.7 mmHg | 0 in | - | 0 W/m² | - |
| 1788145830 | 75° F | 21% | 759.6 mmHg | 0 in | - | 0 W/m² | - |
| 1788145530 | 75° F | 21% | 759.5 mmHg | 0 in | - | 0 W/m² | - |
| 1788145229 | 75° F | 20% | 759.5 mmHg | 0 in | - | 0 W/m² | - |
| 1788144927 | 76° F | 20% | 759.5 mmHg | 0 in | - | 0 W/m² | - |
| 1788144623 | 76° F | 19% | 759.4 mmHg | 0 in | - | 0 W/m² | - |
| 1788144319 | 76° F | 19% | 759.3 mmHg | 0 in | - | 0 W/m² | - |
| 1788144018 | 77° F | 19% | 759.3 mmHg | 0 in | - | 0 W/m² | - |
* Rain latest hour (hover to see other rain measurements)
** Current wind speed in m/s (hover to see current wind gust speed)